World > North America > United States > New York > Auriesville  

Auriesville, NY Hourly Weather Updates

Feedback E-mail the Weather

Quick Clicks

Auriesville, NY Weather Maps

°F °C°F °C
Auriesville Weather Map
UTC Time: 4/22/2024, 22:08
Your Time:

Auriesville, NY Regional Weather

Expires:202404222200;;204237
ASUS41 KALY 222110
RWRALY

NEW YORK STATE HOURLY WEATHER ROUNDUP
NATIONAL WEATHER SERVICE ALBANY NY
500 PM EDT MON APR 22 2024

NOTE: "FAIR" INDICATES FEW OR NO CLOUDS BELOW 12,000 FEET WITH NO
SIGNIFICANT WEATHER AND/OR NO OBSTRUCTIONS TO VISIBILITY.


NYZ032-033-038>043-046>054-057>066-NYZ062>081-082-084-222200-
EAST

  
CITY           SKY/WX    TMP DP  RH WIND       PRES   REMARKS
ALBANY         SUNNY     57  19  22 VRB7      30.06F                  
GLENS FALLS    SUNNY     54  14  20 E7        30.03S                  
POUGHKEEPSIE   SUNNY     58  25  28 SE5       30.02F                  
NEWBURGH       SUNNY     59  23  25 VRB5      30.01F                  
MONTGOMERY     SUNNY     59  20  22 NW9       30.01S                  
WHITE PLAINS   SUNNY     59  24  26 NE6       30.03S                  
ISLIP          MOSUNNY   58  25  28 NW5       30.05S                  
NEW YORK CITY  MOSUNNY   59  21  23 E8        30.03S                  
CENTRAL PARK   SUNNY     63  18  17 VRB6      30.06S                  
$$


SKY/WX - Weather  TMP - Temperature  DP - Dew Point  RH - Humidity
WIND - Wind Direction/Speed PRES - Barometric Pressure VSB - Visibility
WCI - Wind Chill Index E13G22 Wind - East Wind 13 mph/Gusts of 22 mph

Trending Headlines

Trending Entertainment Headlines

Auriesville Radar Loop

Use the map search tool if you want to place a location marker on the radar map...

Auriesville Quick Facts

National Two Day Weather Forecast


E-mail the Auriesville Weather Forecast

Voice your opinion or tell us about page issues...